Cumberland, WV

1:10 AM EDT on March 24, 2017 (GMT -0400)
Greater Cumberland Regional

Weather History for KCBE - March, 2014

Change the Weather History Date:

Wednesday, March 19, 2014

  Actual Average (KMRB) Record (KMRB)
Temperature  
Mean Temperature 44 °F -  
Max Temperature 51 °F 54 °F 81 °F (1945)
Min Temperature 37 °F 32 °F 7 °F (1967)
Degree Days  
Heating Degree Days 21    
Moisture  
Dew Point 31 °F    
Average Humidity 67    
Maximum Humidity 93    
Minimum Humidity 56    
Precipitation  
Precipitation 0.00 in - - ()
Sea Level Pressure  
Sea Level Pressure 30.05 in    
Wind  
Wind Speed 4 mph (ESE)    
Max Wind Speed 9 mph    
Max Gust Speed 9 mph    
Visibility 10 miles    
Events      
Averages and records for this station are not official NWS values.
T = Trace of Precipitation, MM = Missing Value Source: NWS Daily Summary

Daily Weather History Graph

Daily Weather History Graph

Search for Another Location

Airport or City:

Trip Planner

Search our weather history database for the weather conditions in past years. The results will help you decide how hot, cold, wet, or windy it might be!

Date:

Astronomy

Mar. 19, 2014 Rise Set
Actual Time 7:20 AM EDT 7:26 PM EDT
Civil Twilight 6:53 AM EDT 7:52 PM EDT
Nautical Twilight 6:21 AM EDT 8:24 PM EDT
Astronomical Twilight 5:50 AM EDT 8:56 PM EDT
Moon 10:42 PM EDT (3/19) 8:45 AM EDT (3/19)
Length of Visible Light 12h 59m
Length of Day
12h 05m
Waning Gibbous, 91% of the Moon is Illuminated
Mar 19
Waning Gibbous
Mar 23
Last Quarter
Mar 30
New
Apr 7
First Quarter
Apr 15
Full

Hourly Weather History & Observations

Time (EDT) Temp. Windchill Dew Point Humidity Pressure Visibility Wind Dir Wind Speed Gust Speed Precip Events Conditions
12:15 AM 37.4 °F - 23.0 °F 56% 30.20 in 10.0 mi Calm Calm - N/A   Overcast
12:35 AM 37.4 °F - 23.0 °F 56% 30.20 in 10.0 mi Calm Calm - N/A   Overcast
12:55 AM 37.4 °F 34.9 °F 23.0 °F 56% 30.20 in 10.0 mi South 3.5 mph - N/A   Overcast
1:15 AM 37.4 °F 34.9 °F 23.0 °F 56% 30.20 in 10.0 mi South 3.5 mph - N/A   Overcast
1:35 AM 37.4 °F - 24.8 °F 60% 30.20 in 10.0 mi Calm Calm - N/A   Overcast
1:55 AM 37.4 °F - 24.8 °F 60% 30.20 in 10.0 mi Calm Calm - N/A   Overcast
2:15 AM 37.4 °F 32.8 °F 23.0 °F 56% 30.20 in 10.0 mi ESE 5.8 mph - N/A   Overcast
2:35 AM 37.4 °F 32.8 °F 23.0 °F 56% 30.20 in 10.0 mi ESE 5.8 mph - N/A   Overcast
2:55 AM 37.4 °F 33.8 °F 23.0 °F 56% 30.20 in 10.0 mi SE 4.6 mph - N/A   Overcast
3:15 AM 37.4 °F 34.9 °F 23.0 °F 56% 30.19 in 10.0 mi SE 3.5 mph - N/A   Overcast
3:35 AM 37.4 °F 34.9 °F 23.0 °F 56% 30.20 in 10.0 mi SSE 3.5 mph - N/A   Overcast
3:55 AM 37.4 °F 34.9 °F 23.0 °F 56% 30.19 in 10.0 mi SSE 3.5 mph - N/A   Overcast
4:15 AM 37.4 °F 32.8 °F 23.0 °F 56% 30.19 in 10.0 mi SSE 5.8 mph - N/A   Overcast
4:35 AM 37.4 °F 34.9 °F 23.0 °F 56% 30.18 in 10.0 mi SE 3.5 mph - N/A   Overcast
4:55 AM 37.4 °F 33.8 °F 23.0 °F 56% 30.18 in 10.0 mi SSE 4.6 mph - N/A   Overcast
5:15 AM 37.4 °F 34.9 °F 23.0 °F 56% 30.18 in 10.0 mi ESE 3.5 mph - N/A   Overcast
5:35 AM 37.4 °F 33.8 °F 23.0 °F 56% 30.18 in 10.0 mi SE 4.6 mph - N/A   Overcast
5:55 AM 37.4 °F 33.8 °F 23.0 °F 56% 30.17 in 10.0 mi SE 4.6 mph - N/A   Overcast
6:15 AM 37.4 °F 32.8 °F 23.0 °F 56% 30.17 in 10.0 mi SE 5.8 mph - N/A   Overcast
6:36 AM 37.4 °F 32.8 °F 23.0 °F 56% 30.18 in 10.0 mi SE 5.8 mph - N/A   Overcast
6:56 AM 37.4 °F 32.8 °F 24.8 °F 60% 30.18 in 10.0 mi SE 5.8 mph - N/A   Overcast
7:16 AM 37.4 °F 32.8 °F 24.8 °F 60% 30.17 in 10.0 mi SE 5.8 mph - N/A   Overcast
7:36 AM 37.4 °F 33.8 °F 24.8 °F 60% 30.17 in 10.0 mi SE 4.6 mph - N/A   Overcast
7:56 AM 37.4 °F 31.4 °F 24.8 °F 60% 30.17 in 10.0 mi SE 8.1 mph - N/A   Overcast
8:16 AM 37.4 °F 33.8 °F 26.6 °F 65% 30.17 in 10.0 mi SE 4.6 mph - N/A   Overcast
8:36 AM 37.4 °F 33.8 °F 26.6 °F 65% 30.16 in 10.0 mi SSE 4.6 mph - N/A   Overcast
8:56 AM 37.4 °F 32.8 °F 26.6 °F 65% 30.15 in 10.0 mi SE 5.8 mph - N/A   Overcast
9:16 AM 37.4 °F 32.8 °F 26.6 °F 65% 30.15 in 10.0 mi ESE 5.8 mph - N/A   Overcast
9:36 AM 37.4 °F 32.1 °F 28.4 °F 70% 30.15 in 10.0 mi SE 6.9 mph - N/A   Mostly Cloudy
9:56 AM 37.4 °F 33.8 °F 28.4 °F 70% 30.15 in 10.0 mi East 4.6 mph - N/A   Overcast
10:16 AM 39.2 °F 35.9 °F 28.4 °F 65% 30.15 in 10.0 mi SE 4.6 mph - N/A   Overcast
10:36 AM 39.2 °F 37.0 °F 30.2 °F 70% 30.15 in 10.0 mi SE 3.5 mph - N/A   Overcast
10:56 AM 39.2 °F 35.9 °F 32.0 °F 75% 30.14 in 10.0 mi SE 4.6 mph - N/A   Overcast
11:16 AM 41.0 °F 37.1 °F 32.0 °F 70% 30.13 in 10.0 mi SE 5.8 mph - N/A   Overcast
11:36 AM 41.0 °F 39.0 °F 32.0 °F 70% 30.13 in 10.0 mi SSE 3.5 mph - N/A   Overcast
11:56 AM 41.0 °F 37.1 °F 32.0 °F 70% 30.11 in 10.0 mi ESE 5.8 mph - N/A   Overcast
12:16 PM 41.0 °F 37.1 °F 32.0 °F 70% 30.10 in 10.0 mi ESE 5.8 mph - N/A   Overcast
12:36 PM 41.0 °F 37.1 °F 32.0 °F 70% 30.09 in 10.0 mi SSE 5.8 mph - N/A   Overcast
12:56 PM 42.8 °F 40.1 °F 33.8 °F 70% 30.07 in 10.0 mi ESE 4.6 mph - N/A   Overcast
1:16 PM 42.8 °F 41.1 °F 33.8 °F 70% 30.07 in 10.0 mi ESE 3.5 mph - N/A   Overcast
1:36 PM 42.8 °F 38.0 °F 33.8 °F 70% 30.05 in 10.0 mi ESE 8.1 mph - N/A   Overcast
1:56 PM 44.6 °F 41.4 °F 33.8 °F 66% 30.03 in 10.0 mi East 5.8 mph - N/A   Overcast
2:16 PM 44.6 °F 40.2 °F 33.8 °F 66% 30.01 in 10.0 mi ESE 8.1 mph - N/A   Mostly Cloudy
2:36 PM 46.4 °F 44.3 °F 35.6 °F 66% 29.99 in 10.0 mi ESE 4.6 mph - N/A   Overcast
2:56 PM 46.4 °F 45.2 °F 35.6 °F 66% 29.97 in 10.0 mi ESE 3.5 mph - N/A   Overcast
3:17 PM 46.4 °F 43.5 °F 35.6 °F 66% 29.94 in 10.0 mi East 5.8 mph 9.2 mph N/A   Mostly Cloudy
3:37 PM 48.2 °F - 35.6 °F 62% 29.92 in 10.0 mi East 9.2 mph - N/A   Mostly Cloudy
3:57 PM 48.2 °F - 37.4 °F 66% 29.92 in 10.0 mi SE 5.8 mph - N/A   Overcast
4:17 PM 48.2 °F - 37.4 °F 66% 29.90 in 10.0 mi East 6.9 mph - N/A   Mostly Cloudy
4:37 PM 50.0 °F - 37.4 °F 62% 29.90 in 10.0 mi Calm Calm - N/A   Overcast
4:57 PM 50.0 °F - 37.4 °F 62% 29.88 in 10.0 mi SSE 5.8 mph - N/A   Overcast
5:17 PM 51.8 °F - 37.4 °F 58% 29.87 in 10.0 mi Calm Calm - N/A   Overcast
5:37 PM 51.8 °F - 39.2 °F 62% 29.87 in 10.0 mi East 6.9 mph - N/A   Mostly Cloudy
5:57 PM 51.8 °F - 37.4 °F 58% 29.86 in 10.0 mi ENE 5.8 mph - N/A   Scattered Clouds
6:17 PM 51.8 °F - 37.4 °F 58% 29.86 in 10.0 mi NNE 5.8 mph - N/A   Clear
6:37 PM 46.4 °F 42.4 °F 37.4 °F 71% 29.85 in 10.0 mi NNE 8.1 mph - N/A   Clear
6:57 PM 44.6 °F 41.4 °F 35.6 °F 71% 29.85 in 10.0 mi NNW 5.8 mph - N/A   Clear
7:17 PM 44.6 °F 39.7 °F 37.4 °F 76% 29.87 in 10.0 mi NNW 9.2 mph - N/A   Scattered Clouds
7:37 PM 44.6 °F 39.7 °F 37.4 °F 76% 29.88 in 10.0 mi NE 9.2 mph - N/A   Mostly Cloudy
7:57 PM 42.8 °F 38.0 °F 37.4 °F 81% 29.88 in 10.0 mi NNE 8.1 mph - N/A   Overcast
8:17 PM 42.8 °F 39.3 °F 37.4 °F 81% 29.88 in 7.0 mi NNE 5.8 mph - N/A   Overcast
8:37 PM 42.8 °F 40.1 °F 39.2 °F 87% 29.90 in 10.0 mi NW 4.6 mph - N/A   Overcast
8:57 PM 42.8 °F 40.1 °F 39.2 °F 87% 29.90 in 7.0 mi North 4.6 mph - N/A   Overcast
9:17 PM 42.8 °F 39.3 °F 39.2 °F 87% 29.89 in 10.0 mi North 5.8 mph - N/A   Overcast
9:37 PM 42.8 °F - 39.2 °F 87% 29.88 in 10.0 mi Calm Calm - N/A   Mostly Cloudy
9:57 PM 42.8 °F - 39.2 °F 87% 29.88 in 10.0 mi Calm Calm - N/A   Mostly Cloudy
10:17 PM 42.8 °F - 39.2 °F 87% 29.88 in 10.0 mi Calm Calm - N/A   Overcast
10:37 PM 42.8 °F - 39.2 °F 87% 29.90 in 10.0 mi Calm Calm - N/A   Overcast
10:57 PM 41.0 °F 38.0 °F 39.2 °F 93% 29.89 in 3.0 mi SSE 4.6 mph - N/A   Overcast
11:17 PM 41.0 °F 38.0 °F 39.2 °F 93% 29.89 in 3.0 mi South 4.6 mph - N/A   Overcast
11:37 PM 41.0 °F 39.0 °F 39.2 °F 93% 29.88 in 2.5 mi SE 3.5 mph - N/A   Overcast
11:57 PM 41.0 °F 37.1 °F 39.2 °F 93% 29.88 in 2.5 mi SSW 5.8 mph - N/A   Overcast